www.pogodaiklimat.ru

Погода и климат >> Архив погоды >> Норвегия >> Конгсберг Браннстас


ПОГОДА в Конгсберг Браннстас

  • Прогноз погоды в Конгсберг Браннстас
  • Монитор погоды в Конгсберг Браннстас

АРХИВ ПОГОДЫ в Конгсберг Браннстас

Время (UTC), дата Ветер
(напр.,м/с)
 
Видим.   Явления Облачность Т
(С)
Тd
(С)
f
(%)
Тe
(С)
Тes
(С)
Комфортность P
(гПа)
Po
(гПа)
Тmin
(С)
Tmax
(С)
R
(мм)
R24
(мм)
S
(см)
01 10.09 С 1 н/о н/о +11.3 +10.7 96 +11 +11 1015.5 994.7
02 10.09 СВ 1 н/о н/о +11.3 +10.7 96 +11 +11 1015.3 994.5
03 10.09 ЮЗ 1 н/о н/о +11.2 +10.7 97 +11 +11 1014.8 994.0
04 10.09 З 1 н/о н/о +11.3 +10.8 97 +11 +11 1014.4 993.6
05 10.09 С 1 н/о н/о +11.5 +10.9 96 +11 +11 1014.1 993.4
06 10.09 С 1 1500 м дымка {ливн. осадки} 10/5 300 м
[Frnb As op]
+11.5 +11.0 97 +11 +11 1013.7 993.0 +11.1 +12.2 3
07 10.09 СВ 2 н/о н/о +11.7 +11.1 96 +10 +10 1013.6 992.9
08 10.09 С 1 н/о н/о +11.8 +11.1 95 +12 +12 1013.5 992.8
09 10.09 СВ 2 н/о н/о +12.2 +11.3 94 +11 +11 1013.4 992.7
10 10.09 СВ 1 н/о н/о +12.4 +11.6 95 +12 +12 1013.1 992.5
11 10.09 Ю 1 н/о н/о +12.3 +11.8 97 +12 +12 1013.1 992.5
12 10.09 Ю 1 1500 м дымка {ливн. осадки} 10/5 300 м
[Frnb As op]
+12.7 +12.2 97 +13 +13 1012.9 992.3
13 10.09 С 2 н/о н/о +13.5 +12.1 91 +13 +13 1012.4 991.9
14 10.09 СВ 1 н/о н/о +13.6 +12.3 92 +14 +14 1012.4 991.9
15 10.09 СВ 1 н/о н/о +13.6 +12.5 93 +14 +14 1011.9 991.4
16 10.09 СВ 1 н/о н/о +13.9 +12.8 93 +14 +14 1011.5 991.0
17 10.09 С 1 н/о н/о +14.3 +12.7 90 +15 +15 1011.0 990.5
18 10.09 С 1 10 км {дождь} 10/5 300 м
[Frnb As op]
+14.1 +12.6 91 +14 +14 1011.5 991.0 +11.5 +14.3 12
19 10.09 ЮВ 1 н/о н/о +13.5 +12.8 96 +14 +14 1012.1 991.5
20 10.09 З 1 н/о н/о +13.3 +12.7 96 +13 +13 1011.5 991.0
21 10.09 штиль 0 н/о н/о +13.3 +12.8 97 +13 +13 1011.4 990.8
22 10.09 З 1 н/о н/о +13.0 +12.5 97 +13 +13 1010.6 990.0
23 10.09 штиль 0 н/о н/о +12.8 +12.3 97 +12 +12 1009.8 989.3
00 11.09 СЗ 1 н/о н/о +12.7 +12.3 97 +13 +13 1009.7 989.1
01 11.09 СЗ 1 н/о н/о +12.6 +12.2 97 +12 +12 1009.6 989.0
02 11.09 С 1 н/о н/о +12.5 +12.2 98 +12 +12 1009.0 988.4
03 11.09 СЗ 1 н/о н/о +11.9 +11.5 97 +12 +12 1008.2 987.6
04 11.09 штиль 0 н/о н/о +11.5 +11.2 98 +11 +11 1007.7 987.1
05 11.09 ЮВ 1 н/о н/о +11.8 +11.5 98 +12 +12 1007.1 986.5
06 11.09 З 1 1000 м дымка {дождь, туман} 10/10 200 м
[St]
+11.8 +11.5 98 +12 +12 1006.8 986.2 +11.3 +14.1 0.1
07 11.09 Ю 1 н/о н/о +12.5 +12.2 98 +12 +12 1006.2 985.7
08 11.09 Ю 1 н/о н/о +13.1 +12.5 96 +13 +13 1006.2 985.7
09 11.09 ЮЗ 3 н/о н/о +14.7 +8.0 64 +14 +14 1006.3 986.0
10 11.09 Ю 2 н/о н/о +13.2 +9.0 76 +13 +13 1006.7 986.2
11 11.09 ЮВ 1 н/о н/о +12.4 +10.5 88 +12 +12 1006.2 985.7
12 11.09 Ю 2 10 км {дождь, морось} 10/5 1000 м
[Frnb As op]
+12.8 +10.3 85 +12 +13 1005.7 985.2
13 11.09 Ю 1 н/о н/о +13.0 +11.1 88 +13 +13 1005.1 984.6
14 11.09 Ю 1 н/о н/о +12.5 +11.3 92 +12 +12 1004.7 984.2
15 11.09 СВ 1 н/о н/о +12.1 +11.1 94 +12 +12 1004.1 983.6
16 11.09 СВ 1 н/о н/о +12.4 +11.5 94 +12 +12 1003.7 983.2
17 11.09 Ю 1 н/о н/о +12.7 +11.9 95 +13 +13 1003.5 983.0
18 11.09 штиль 0 10 км слаб. дождь {морось} 9/5 1000 м
[St As trans]
+12.3 +11.7 96 +12 +12 1003.4 982.9 +11.8 +15.2 3
19 11.09 З 1 н/о н/о +12.1 +11.6 97 +12 +12 1004.2 983.7
20 11.09 ЮЗ 2 н/о н/о +11.5 +10.9 96 +10 +10 1004.6 984.1
21 11.09 СЗ 1 н/о н/о +10.7 +9.9 95 +10 +10 1005.5 984.9
22 11.09 Ю 1 н/о н/о +9.8 +9.1 95 +9 +9 1006.4 985.6
23 11.09 СЗ 2 н/о н/о +8.8 +8.2 96 +7 +7 1007.2 986.4
00 12.09 ЮЗ 1 н/о н/о +7.6 +6.9 95 +7 +7 1007.9 987.0
01 12.09 З 1 н/о н/о +7.0 +6.5 97 +6 +6 1008.9 987.9
02 12.09 З 1 н/о н/о +7.2 +6.8 97 +6 +6 1009.1 988.1
03 12.09 ЮЗ 1 н/о н/о +7.3 +6.6 95 +6 +6 1009.8 988.9
04 12.09 З 1 н/о н/о +7.2 +6.6 96 +6 +6 1010.2 989.2
05 12.09 ЮЗ 1 н/о н/о +7.6 +6.8 95 +7 +7 1010.9 990.0
06 12.09 штиль 0 20 км 6/0 2000 м
[Ac trans]
+9.5 +7.9 90 +9 +9 1011.3 990.5 +6.8 +12.4 0.0
07 12.09 Ю 1 н/о н/о +10.2 +8.4 89 +10 +10 1011.9 991.1
08 12.09 С 1 н/о н/о +11.6 +8.8 83 +11 +11 1012.2 991.5
09 12.09 Ю 1 н/о н/о +13.6 +9.9 78 +14 +14 1012.4 991.8
10 12.09 ЮЗ 2 н/о н/о +15.5 +7.5 59 +15 +15 1012.4 992.0
11 12.09 ЮЗ 4 н/о н/о +17.1 +7.2 52 +17 +17 1012.2 991.9
12 12.09 ЮЗ 3 55 км 8/3 600 м
[Sc Ac As]
+16.7 +7.0 53 +17 +18 1012.5 992.2
13 12.09 ЮЗ 3 н/о н/о +17.1 +7.1 52 +17 +17 1012.2 991.9
14 12.09 ЮЗ 3 н/о н/о +17.6 +6.6 48 +18 +18 1012.4 992.1
15 12.09 ЮЗ 2 н/о н/о +16.2 +6.1 51 +16 +16 1012.5 992.1
16 12.09 ЮЗ 2 н/о н/о +15.2 +6.6 56 +15 +15 1012.4 991.9
17 12.09 Ю 1 н/о н/о +14.6 +7.0 60 +15 +15 1012.5 992.0
18 12.09 ЮЗ 1 55 км 8/6 600 м
[Sc Ac trans Ci fib]
+12.9 +7.4 69 +13 +13 1012.9 992.2 +18.0 0.0
19 12.09 З 1 н/о н/о +10.8 +7.2 78 +11 +11 1012.9 992.1
20 12.09 СЗ 1 н/о н/о +9.3 +7.0 86 +9 +9 1012.9 992.1
21 12.09 З 1 н/о н/о +7.9 +6.6 91 +7 +7 1013.1 992.1
22 12.09 З 1 н/о н/о +7.3 +6.0 91 +6 +6 1013.1 992.1
23 12.09 ЮЗ 1 н/о н/о +7.7 +5.9 88 +7 +7 1012.7 991.8
00 13.09 В 1 н/о н/о +7.7 +5.9 88 +7 +7 1013.1 992.1
01 13.09 ЮЗ 1 н/о н/о +7.7 +5.4 85 +7 +7 1013.5 992.5
02 13.09 ЮЗ 1 н/о н/о +6.5 +4.7 88 +5 +5 1014.3 993.2
03 13.09 З 2 н/о н/о +7.1 +4.5 84 +5 +5 1014.9 993.8
04 13.09 З 2 н/о н/о +5.8 +3.7 86 +3 +3 1015.8 994.6
05 13.09 З 2 н/о н/о +5.2 +3.3 88 +3 +3 1016.5 995.2
06 13.09 ЮЗ 1 >70 км ясно +6.1 +4.2 88 +5 +5 1017.3 996.1 +5.1 +12.9 0.0
07 13.09 ЮЗ 1 н/о н/о +10.3 +4.1 65 +10 +10 1017.6 996.7
08 13.09 ЮЗ 2 н/о н/о +13.4 +3.3 50 +13 +13 1017.9 997.2
09 13.09 ЮЗ 2 н/о н/о +14.2 +3.3 48 +14 +14 1018.4 997.8
10 13.09 З 2 н/о н/о +14.9 +1.7 41 +15 +15 1018.7 998.1
11 13.09 З 3 н/о н/о +16.3 +1.2 36 +16 +16 1018.9 998.4
12 13.09 СЗ 5 >70 км 4/0 2000 м
[Ac trans]
+16.3 +1.6 37 +15 +18 1019.7 999.1
13 13.09 З 3 н/о н/о +16.9 +1.6 36 +17 +17 1020.1 999.6
14 13.09 З 2 н/о н/о +15.2 +1.8 40 +15 +15 1020.3 999.7
15 13.09 З 3 н/о н/о +15.9 +0.7 36 +16 +16 1020.6 1000.0
16 13.09 З 3 н/о н/о +15.0 +1.1 39 +15 +15 1020.5 999.9
17 13.09 З 3 н/о н/о +13.0 +1.9 47 +12 +12 1021.3 1000.5
18 13.09 З 2 >70 км 8/0 1500 м
[Ac As Ci sp]
+11.6 +2.4 53 +11 +11 1022.1 1001.2 +16.9
19 13.09 З 2 н/о н/о +10.5 +2.6 58 +9 +9 1022.8 1001.8
20 13.09 З 1 н/о н/о +7.2 +2.9 74 +6 +6 1023.7 1002.4
21 13.09 З 2 н/о н/о +6.4 +2.2 74 +4 +4 1024.2 1002.8
22 13.09 н/о н/о
23 13.09 З 2 н/о н/о +5.2 +1.8 79 +3 +3 1024.4 1003.0
00 14.09 З 2 н/о н/о +5.2 +1.4 76 +3 +3 1024.6 1003.2
01 14.09 ЮЗ 1 н/о н/о +3.8 +1.6 86 +2 +2 1024.9 1003.3
02 14.09 З 1 н/о н/о +5.0 +1.9 80 +4 +4 1025.0 1003.5
03 14.09 З 1 н/о н/о +4.8 +2.2 83 +4 +4 1024.7 1003.3
04 14.09 З 1 н/о н/о +4.9 +2.5 84 +4 +4 1024.8 1003.4
05 14.09 ЮЗ 1 н/о н/о +4.2 +2.4 88 +3 +3 1025.0 1003.5
06 14.09 З 1 70 км 10/0 2000 м
[As trans]
+4.3 +2.4 87 +3 +3 1025.1 1003.6 +3.6
07 14.09 ЮЗ 1 н/о н/о +5.2 +3.6 89 +4 +4 1025.0 1003.6
08 14.09 Ю 1 н/о н/о +7.5 +4.7 82 +7 +7 1024.5 1003.3
09 14.09 ЮВ 1 н/о н/о +9.6 +5.0 73 +9 +9 1024.1 1003.0
10 14.09 В 2 н/о н/о +10.5 +4.5 66 +9 +9 1023.5 1002.5
11 14.09 ЮВ 1 н/о н/о +13.2 +5.3 59 +14 +14 1022.7 1001.9
12 14.09 Ю 2 55 км 10/5 1000 м
[Sc Ac cuf]
+14.1 +4.9 54 +14 +14 1021.5 1000.8
13 14.09 ЮЗ 2 н/о н/о +13.8 +6.3 61 +13 +13 1020.4 999.7
14 14.09 ЮЗ 3 н/о н/о +13.7 +6.1 60 +13 +13 1019.2 998.5
15 14.09 Ю 2 н/о н/о +13.5 +7.2 66 +13 +13 1017.5 996.8
16 14.09 ЮЗ 3 н/о н/о +13.5 +6.2 61 +12 +12 1015.9 995.3
17 14.09 ЮЗ 2 н/о н/о +12.8 +5.7 62 +12 +12 1014.7 994.0
18 14.09 Ю 2 55 км 10/3 1000 м
[Frnb As op]
+12.2 +5.8 65 +11 +11 1013.4 992.7 +4.3 +14.3
19 14.09 Ю 2 н/о н/о +11.3 +6.2 71 +10 +10 1011.3 990.5
20 14.09 Ю 2 н/о н/о +11.5 +6.2 70 +11 +11 1009.4 988.7
21 14.09 Ю 2 н/о н/о +11.1 +6.7 74 +10 +10 1007.5 986.9
22 14.09 Ю 1 н/о н/о +10.7 +7.5 81 +10 +10 1006.3 985.7
23 14.09 Ю 1 н/о н/о +10.6 +8.5 87 +10 +10 1004.9 984.3
00 15.09 С 1 н/о н/о +10.3 +9.0 92 +10 +10 1004.2 983.6
01 15.09 ЮЗ 2 н/о н/о +10.5 +9.1 91 +9 +9 1002.9 982.3
02 15.09 ЮЗ 2 н/о н/о +10.3 +8.2 87 +9 +9 1001.7 981.2
03 15.09 ЮЗ 2 н/о н/о +9.5 +6.4 81 +8 +8 1000.4 979.8
04 15.09 З 2 н/о н/о +9.0 +4.9 75 +7 +7 1000.1 979.5
05 15.09 З 4 н/о н/о +10.1 +3.6 64 +8 +8 999.9 979.3
06 15.09 ЮЗ 4 >70 км {дождь} 1/1 1000 м
[Cu hum]
+10.3 +3.3 62 +8 +8 998.9 978.4 +8.6 +12.2 2
07 15.09 ЮЗ 4 н/о н/о +10.6 +2.7 58 +8 +8 998.2 977.7
08 15.09 З 5 н/о н/о +11.8 +1.6 50 +10 +10 997.5 977.1
09 15.09 З 4 н/о н/о +12.8 +0.7 44 +11 +11 997.6 977.3
10 15.09 З 5 н/о н/о +13.6 +0.9 42 +12 +12 997.6 977.3
11 15.09 З 6 н/о н/о +14.5 +1.5 41 +13 +13 996.9 976.7
12 15.09 З 5 >70 км 1/1 1000 м
[Cu hum]
+15.3 +1.9 40 +14 +17 996.9 976.7
13 15.09 З 3 н/о н/о +16.3 +2.6 40 +16 +16 996.7 976.6
14 15.09 З 5 н/о н/о +15.7 +2.7 42 +15 +15 996.6 976.5
15 15.09 СЗ 4 н/о н/о +15.8 +2.7 41 +15 +15 997.2 977.1
16 15.09 З 5 н/о н/о +14.9 +2.8 44 +14 +14 997.0 976.8
17 15.09 З 3 н/о н/о +13.6 +3.0 49 +13 +13 998.1 977.8
18 15.09 З 3 >70 км 1/1 1000 м
[Cu hum]
+13.0 +2.4 49 +12 +12 998.2 977.9 +10.3 +16.4
19 15.09 З 2 н/о н/о +12.2 +1.9 49 +12 +12 999.4 979.0
20 15.09 Ю 2 н/о н/о +11.6 +1.8 51 +11 +11 1000.6 980.1
21 15.09 З 3 н/о н/о +12.1 +0.7 46 +11 +11 1001.8 981.3
22 15.09 СЗ 4 н/о н/о +11.6 -0.2 44 +10 +10 1003.1 982.6
23 15.09 СЗ 3 н/о н/о +11.2 -2.6 38 +10 +10 1004.1 983.5
00 16.09 СЗ 3 н/о н/о +10.4 -3.9 36 +9 +9 1004.9 984.3
01 16.09 З 4 н/о н/о +10.0 -3.7 38 +8 +8 1005.3 984.6
02 16.09 З 2 н/о н/о +8.8 -2.3 46 +8 +8 1006.1 985.3
03 16.09 СВ 1 н/о н/о +6.1 -1.2 59 +5 +5 1006.6 985.6
04 16.09 ЮВ 1 н/о н/о +6.8 +0.4 64 +6 +6 1006.4 985.5
05 16.09 З 2 н/о н/о +5.7 -0.3 65 +4 +4 1006.6 985.6
06 16.09 В 1 >70 км 1/0 2000 м
[Ac cuf]
+7.9 -0.1 57 +8 +8 1006.8 985.9 +5.0 +13.0
07 16.09 З 2 н/о н/о +10.1 -1.4 45 +9 +9 1007.0 986.3
08 16.09 З 4 н/о н/о +11.6 -2.4 38 +10 +10 1007.0 986.4
09 16.09 З 4 н/о н/о +12.9 -1.3 37 +12 +12 1007.1 986.6
10 16.09 З 4 н/о н/о +13.8 -1.6 34 +13 +13 1007.0 986.5
11 16.09 З 3 н/о н/о +14.7 -1.0 34 +14 +14 1007.0 986.7
12 16.09 З 5 >70 км 1/1 600 м
[Cu hum]
+14.8 -1.7 32 +14 +16 1006.9 986.5
13 16.09 З 2 н/о н/о +16.1 -0.9 31 +16 +16 1007.0 986.7
14 16.09 З 4 н/о н/о +15.2 -1.4 32 +14 +14 1006.7 986.4
15 16.09 З 2 н/о н/о +15.4 -0.1 35 +15 +15 1006.3 986.0
16 16.09 З 3 н/о н/о +14.2 -0.2 37 +14 +14 1006.0 985.6
17 16.09 ЮЗ 2 н/о н/о +12.2 +1.2 47 +12 +12 1006.0 985.5
18 16.09 З 2 >70 км 3/3 600 м
[Cu hum]
+10.9 +1.2 51 +10 +10 1005.9 985.2 +7.9 +16.3 0.0
19 16.09 Ю 1 н/о н/о +9.4 +1.5 58 +9 +9 1005.8 985.1
20 16.09 З 1 н/о н/о +6.9 +2.4 73 +6 +6 1005.6 984.7
21 16.09 З 2 н/о н/о +9.0 +2.2 62 +8 +8 1004.8 984.1
22 16.09 СЗ 2 н/о н/о +8.2 +1.9 64 +7 +7 1004.5 983.7
23 16.09 СЗ 2 н/о н/о +7.8 +1.7 65 +6 +6 1004.1 983.3
00 17.09 СЗ 2 н/о н/о +7.5 +1.5 66 +6 +6 1003.7 982.9
01 17.09 СЗ 1 н/о н/о +6.2 +1.1 70 +5 +5 1003.4 982.5
02 17.09 ЮВ 1 н/о н/о +6.6 +1.2 68 +6 +6 1002.9 982.0

 

Местоположение метеостанции Конгсберг Браннстас (Норвегия): широта 59.62 долгота 9.63 высота над уровнем моря 170 м.

В архиве по умолчанию представлена погода в Конгсберг Браннстас за последнюю неделю. Архивные данные за месяц целиком и за предыдущие месяцы, начиная с января 2011 года, Вы можете получить, выбрав интересующий диапазон дат из раскрывающегося списка и нажав кнопку "Ввод!".


*Определитесь, кто Вы:
робот инопланетянин человек

Внимание! Время в таблицах - всемирное. Для получения местного времени необходимо прибавить поправку, которая равна 1 ч.

Смотрите также архив погоды в соседних городах и на ближайших метеорологических станциях:

Погода в Коннеруде (Норвегия) (31 км)
Погода в Драммен Берског (Норвегия) (31 км)
Погода в Санде-Галлеберге (Норвегия) (33 км)
Погода во Гварве (Норвегия) (36 км)
Погода в Аскере (Норвегия) (52 км)
Погода в Веггли (Норвегия) (55 км)
Погода на Гуллхолмене (Норвегия) (57 км)
Погода в Порсгрунне (Норвегия) (59 км)
Погода в Мелсоме (Норвегия) (60 км)
Погода на Гаустатоппене (Норвегия) (60 км)

Пояснения к столбцам:

Ветер - указаны скорость ветра в м/с - средняя за 10 мин, порывы в срок и между сроками (в фигурных скобках) и направление, откуда дует ветер: С - северный, СВ - северо-восточный, В - восточный, ЮВ - юго-восточный, Ю - южный, ЮЗ - юго-западный, З - западный, СЗ - северо-западный.
Видимость - горизонтальная дальность видимости в метрах или километрах. При видимости от 1 до 10 км при отсутствии осадков обычно наблюдается дымка, при ухудшении видимости до 1 км и менее - туман. В сухую погоду видимость может ухудшаться дымом, пылью или мглою.
Явления - указаны атмосферные явления, наблюдавшиеся в срок или в последний час перед сроком; фигурными скобками обозначены явления, наблюдавшиеся между сроками (за 1-3 часа до срока); квадратными скобками обозначены град или гололедные отложения с указанием их диаметра в мм.
Облачность - указаны через наклонную черту общая и нижняя облачность в баллах и высота нижней границы облаков в метрах; квадратными скобками обозначены формы облаков: Ci - перистые, Cs - перисто-слоистые, Cc - перисто-кучевые, Ac - высококучевые, As - высокослоистые, Sc - слоисто-кучевые, Ns - слоисто-дождевые, Cu - кучевые, Cb - кучево-дождевые. Подробнее классификацию облаков см. в Атласе облаков (PDF).
T - Температура воздуха - температура, измеренная на высоте 2 м над землей.
Td - Температура точки росы - температура, при понижении до которой содержащийся в воздухе водяной пар достигнет насыщения.
f - Относительная влажность воздуха - влажноcть воздуха, измеренная на высоте 2 м над землей.
Te - Эффективная температура - температура, которую ощущает одетый по сезону человек в тени. Характеристика душности погоды. При расчете учитывается влияние влажности воздуха и скорости ветра на теплоощущения человека.
Tes - Эффективная температура на солнце - температура, которую ощущает человек, с поправкой на солнечный нагрев. Характеристика знойности погоды. Зависит от высоты солнца над горизонтом, облачности и скорости ветра. Ночью, в пасмурную погоду, а также при ветре 12 м/с и более поправка равна нулю.
P - Атмосферное давление - приведенное к уровню моря атмосферное давление.
Po - Атмосферное давление - измеренное на уровне метеостанции атмосферное давление.
Tmin - Минимальная температура - минимум температуры воздуха на высоте 2 м над землей.
Tmax - Максимальная температура - максимум температуры воздуха на высоте 2 м над землей.
R - Количество осадков - Количество выпавших осадков за период времени, мм. При наведении курсора мыши на число - период времени, за который выпало указанное количество осадков.
R24 - Количество осадков - Количество выпавших осадков за 24 часа, мм.
S - Снежный покров - Высота снежного покрова, см. При наведении курсора мыши на число - состояние снежного покрова и степень покрытия местности в баллах.